Погода в Эредии

Коста-Рика     10°00′19″N   84°07′44″W
темп.,
°C
ветер,
м/с
пор.,
м/с
влажн.,
%
обл.,
%
осадки,
мм/ч
давл.,
гПа
погр.,
м
9 августа, вт
вт900:00+17св239686 0.0 101380
03:00+17св229697 0.0 101244
06:00+17св22956 0.0 101449
09:00+25ссв126480 0.0 1013929
12:00+26зюз116298 0.4 1011830
15:00+24зюз1180100 5.8 1010677
18:00+20ссв0193100 9.2 101214
21:00+18св2296100 0.0 101549
10 августа, ср
ср1000:00+18св2395100 0.0 101466
03:00+18св239599 0.0 101363
06:00+18св2395100 0.0 101474
09:00+24всв1372100 0.0 1013885
12:00+25зюз127145 1.8 1012864
15:00+24зюз118299 5.3 1011497
18:00+20ссв1195100 8.4 101318
21:00+19св1195100 0.3 101519
11 августа, чт
чт1100:00+18ссв1196100 0.3 101419
03:00+17св119669 0.0 101328
06:00+18св229599 0.1 101460
09:00+23ссв138221 1.1 1014532
12:00+26ссз0265100 2.8 10121284
15:00+22ссз1185100 5.0 1011394
18:00+19ссв1398100 11.9 1013146
21:00+18всв1198100 6.4 101558
12 августа, пт
пт1200:00+18ссв1296100 11.6 101544
03:00+18св1195100 0.4 101422
06:00+18св1196100 1.4 101524
09:00+18ссв0096100 0.8 101642
12:00+19ссв0195100 1.6 1016155
15:00+19ссз1193100 0.4 1013204
18:00+18св1194100 0.6 101421
21:00+18св2192100 0.0 101634
13 августа, сб
сб1300:00+18св1192100 0.0 101527
03:00+17св1191100 0.0 101415
06:00+18ссв2190100 0.0 101430
09:00+24зюз1066100 0.0 1014764
12:00+24юз217353 0.4 1014947
15:00+20юз2395100 2.2 1013304
18:00+19юз119957 3.5 101450
21:00+18св009885 0.1 101614